User: anonymous
Location: Roanoke
(37.2710°N, 79.9420°W)
Time: 13:28:03
(UTC-04:00)
Language:

Cosmos 1441 Rocket - Orbit

View from above orbital plane
View from above orbital plane
View from above satellite
View from above satellite

Ground track
Ground track

The orbit data is extracted from the following two-line orbital elements,

1 13819U 83010B   14109.14072806  .00006575  00000-0  39366-3 0  8270
2 13819 081.1235 064.3992 0034036 213.3124 146.5960 15.10385416699031
Epoch (UTC): 19 April 2014 03:22:38
Eccentricity: 0.0034036
inclination: 81.1235°
perigee height: 511 km
apogee height: 558 km
right ascension of ascending node: 64.3992°
argument of perigee: 213.3124°
revolutions per day: 15.10385416
mean anomaly at epoch: 146.5960°
orbit number at epoch: 69903

The dashed part of the orbit path shows where the satellite is in the earth's shadow,  

DLR